Wind_Speed
24 23 21 21 22 23 24 25 24 21 21 23 23 23 22 23 24 24 24 24 23 21 20 18 17 17 17 17 17 17 16 16 16 16 16 15 15 14 13 11 11 10 10 10 9 10 10 9 9 8 7 5 5 4 4 4 4 4 4 4 5 5 4
25 24 23 21 22 23 25 26 25 22 22 23 24 24 24 24 24 25 25 25 25 23 22 20 19 19 19 18 18 17 17 16 16 15 16 16 16 15 14 13 12 12 11 11 10 10 10 9 9 9 8 7 6 5 5 5 5 5 5 5 5 5 5
26 25 23 22 21 23 26 27 24 23 23 24 25 25 25 25 25 25 26 26 25 25 24 22 21 21 20 19 18 18 17 16 16 16 16 17 16 16 15 14 14 14 13 12 11 11 10 10 9 9 9 8 7 7 6 6 6 6 6 6 6 6 6
27 25 23 22 23 24 27 28 26 24 24 24 25 27 27 28 27 26 26 25 25 27 26 24 24 23 21 20 19 19 18 17 17 17 18 17 17 17 16 16 16 15 15 14 12 12 11 10 10 10 9 9 8 8 7 7 7 7 7 7 7 7 7
28 27 24 23 25 25 26 30 28 25 25 24 24 27 29 29 29 27 27 26 26 28 27 26 25 24 23 22 20 20 19 19 18 18 18 18 18 18 18 17 17 17 16 15 14 13 12 12 11 11 10 10 9 9 8 8 8 7 7 7 8 8 8
29 29 26 25 26 25 25 30 29 24 23 23 23 26 28 29 29 27 26 26 27 27 27 27 26 25 24 23 21 21 21 20 20 19 19 19 19 20 20 19 18 18 17 16 15 14 13 13 12 12 11 11 10 9 9 9 8 8 8 8 8 8 9
31 30 28 26 27 24 23 28 30 25 24 25 24 25 27 27 27 27 26 26 26 26 26 26 26 26 26 25 23 22 22 21 21 20 20 20 20 20 20 20 19 19 18 17 16 16 15 14 13 13 12 12 11 10 10 10 9 9 9 9 9 9 9
33 32 30 28 27 26 23 25 29 28 27 27 25 25 25 24 25 25 26 26 26 25 26 26 26 26 27 27 26 24 23 22 21 21 21 20 21 21 21 21 21 20 19 19 18 16 16 15 14 14 13 12 12 11 11 10 10 10 10 9 10 10 10
35 34 33 30 28 27 26 24 26 30 30 28 25 24 24 23 24 25 26 27 27 27 27 27 27 27 27 28 28 27 25 23 22 21 21 21 21 21 21 22 21 21 21 20 19 17 17 16 15 14 14 13 13 12 12 11 11 11 10 10 10 10 11
38 36 34 33 30 29 29 28 26 28 29 27 25 24 25 25 26 27 27 27 28 30 29 28 28 28 28 27 28 28 27 25 23 22 21 21 22 22 22 22 22 22 22 22 20 19 18 17 16 16 15 14 14 13 12 11 11 11 11 11 11 11 11
40 38 36 34 33 31 31 30 29 28 28 27 25 24 26 27 27 26 26 26 29 30 31 30 29 30 30 29 29 29 28 27 26 24 23 22 22 22 23 23 22 23 23 23 22 21 20 19 18 17 17 16 15 13 12 11 11 11 11 11 11 11 12
41 40 37 35 35 34 33 32 31 30 30 29 28 26 27 29 29 28 27 28 31 31 30 31 31 32 32 30 29 28 28 28 27 27 26 25 24 24 23 22 23 23 23 23 23 22 21 20 20 19 19 18 16 14 13 12 12 11 11 11 11 12 13
43 42 39 37 36 35 34 33 31 31 32 32 31 30 29 29 31 32 30 31 33 30 29 29 30 31 31 30 29 28 28 28 28 28 28 27 27 26 24 23 23 23 24 24 24 23 23 22 21 21 20 19 18 16 15 14 13 13 12 12 12 12 13
45 44 42 39 37 35 34 33 32 33 34 34 33 32 30 28 30 32 32 32 31 29 29 28 27 28 28 28 28 28 28 29 28 29 29 29 29 27 26 25 24 24 24 24 24 24 23 23 23 23 22 20 19 18 16 15 15 15 14 13 13 13 13
46 46 44 41 39 36 33 32 32 33 35 34 33 32 31 29 29 30 33 34 33 30 30 28 25 26 27 27 28 28 29 29 28 29 29 29 29 28 28 27 26 26 25 24 24 24 25 24 24 24 23 22 21 19 18 17 17 17 16 16 15 15 14
46 47 46 44 42 39 35 32 31 31 33 34 33 33 32 30 30 29 30 34 36 35 32 29 28 28 28 28 29 29 29 29 28 28 28 29 29 29 29 29 28 28 26 25 25 25 25 25 25 24 23 23 22 21 20 19 18 19 19 18 17 17 16
44 46 47 46 44 42 40 37 34 32 32 33 33 33 31 31 32 31 30 32 36 39 37 31 30 31 30 30 31 30 28 27 27 27 28 28 29 29 29 29 29 29 28 27 26 26 26 26 25 25 24 24 23 22 21 20 20 20 21 20 20 19 18
43 45 47 48 47 46 44 42 39 36 34 33 33 34 33 32 32 34 33 31 32 37 39 35 33 34 33 33 33 31 29 27 26 26 26 28 28 29 29 29 29 29 29 28 28 27 27 27 26 26 25 25 24 23 22 21 21 22 23 22 22 21 20
43 45 46 48 49 49 48 46 44 41 39 37 35 35 35 34 34 35 36 34 32 33 36 38 38 37 35 35 34 33 31 29 27 25 25 26 27 28 29 30 30 29 29 30 30 30 29 28 28 27 27 26 25 24 24 23 23 23 24 24 24 23 22
45 45 46 47 49 50 50 50 49 46 45 43 40 38 37 37 36 36 36 36 35 33 33 37 40 40 38 37 35 34 34 32 30 28 26 26 26 27 28 29 30 30 31 31 32 31 31 30 30 30 29 28 27 26 26 25 24 24 25 26 26 25 24
47 47 47 48 49 50 51 52 52 51 49 48 46 43 41 40 39 38 37 37 36 36 35 35 37 40 41 39 36 36 36 34 32 30 29 28 28 28 28 29 29 31 32 33 34 33 32 32 32 32 31 31 30 29 28 28 27 26 26 27 28 27 26
49 49 49 49 49 50 51 52 54 54 53 52 50 48 46 45 43 41 40 39 38 38 38 37 36 37 40 40 38 37 38 36 35 33 31 31 31 31 32 32 32 32 33 35 36 34 34 33 34 34 33 33 33 32 31 31 31 29 29 30 31 30 29
50 51 51 51 51 51 51 52 53 55 55 55 54 53 51 50 49 47 45 43 41 40 40 42 40 37 38 39 38 38 38 38 37 36 35 34 34 35 35 34 33 33 34 35 35 35 34 35 36 36 35 34 35 34 33 33 34 33 32 33 34 34 32
51 52 52 53 53 53 53 53 53 54 56 57 57 57 56 55 54 53 51 48 46 44 42 44 44 41 39 39 38 38 38 38 39 39 39 38 38 38 37 35 34 34 34 34 34 33 32 32 34 35 35 35 36 35 35 35 35 35 35 35 36 36 34
52 52 52 53 54 54 54 55 55 55 56 57 58 58 59 59 58 58 56 54 52 49 46 46 47 45 42 40 39 39 39 39 39 41 42 42 42 41 38 36 36 36 36 36 34 32 31 31 32 33 33 34 35 35 35 36 37 36 35 35 35 36 36
52 53 53 54 54 55 56 57 57 57 57 57 58 59 59 60 60 60 60 59 57 55 52 49 49 49 47 44 41 40 41 41 40 41 42 43 45 44 42 40 40 39 38 37 35 32 31 32 32 32 33 34 35 35 35 36 38 37 36 36 36 36 36
52 53 54 55 55 55 56 57 57 58 59 59 59 60 59 59 60 61 62 62 61 60 57 54 53 53 51 48 45 43 44 45 44 43 44 45 47 48 45 43 43 42 39 38 36 33 32 32 32 32 32 34 35 36 34 35 38 37 35 35 36 37 38
49 51 53 55 56 56 56 57 58 59 60 60 60 61 61 60 60 61 62 63 63 63 62 60 58 56 54 52 50 47 47 48 48 48 48 47 48 48 47 46 44 42 39 39 39 37 35 34 34 33 33 34 34 34 34 34 36 36 35 36 36 37 38
45 47 50 52 55 56 56 57 58 58 59 60 61 61 62 62 62 62 62 63 63 64 64 64 62 60 58 56 53 51 50 51 51 51 52 51 50 49 48 47 46 43 41 40 41 40 38 37 36 35 35 34 34 34 34 34 34 34 36 36 36 36 37
45 45 47 49 51 53 54 55 56 57 59 60 61 61 62 62 63 63 63 64 64 64 65 66 66 64 62 59 57 55 54 54 54 54 54 55 54 52 49 48 48 47 45 43 41 40 38 37 37 37 36 36 36 35 36 36 35 34 35 34 35 36 38
46 47 47 47 48 50 51 52 53 55 56 58 60 61 62 63 63 63 64 65 65 65 66 67 68 67 66 63 61 59 59 58 57 57 57 58 58 56 53 52 51 50 49 47 44 41 39 38 38 39 39 39 38 37 38 39 38 37 37 37 36 37 39
48 48 48 48 48 48 49 51 52 52 53 55 57 59 60 62 63 63 64 65 66 67 67 67 68 69 69 67 65 64 64 63 62 61 60 61 61 60 58 56 55 53 53 52 48 44 42 41 41 41 42 42 41 40 40 40 40 41 42 42 40 40 41
49 49 49 49 49 49 49 49 50 51 51 52 54 56 58 60 61 62 64 64 65 67 68 68 69 70 71 71 70 69 68 68 67 66 65 65 65 63 61 60 58 56 56 55 52 48 45 44 44 43 43 43 43 43 42 42 42 43 44 44 43 42 42
51 52 51 52 52 51 51 50 50 51 51 51 53 54 56 57 58 60 62 63 64 66 68 69 69 70 71 73 73 73 73 72 71 70 69 69 69 68 66 63 62 60 58 57 55 52 49 47 45 45 45 44 44 44 45 45 44 44 44 46 46 44 44
53 53 53 53 54 54 54 53 53 52 52 52 53 53 54 55 56 57 59 61 62 64 66 68 69 70 72 73 75 76 77 76 75 74 73 72 72 72 71 69 66 65 63 60 58 56 54 51 49 47 47 46 45 45 47 47 46 44 44 46 46 46 45
53 53 53 53 54 55 55 55 56 55 55 55 55 55 55 55 56 57 58 59 61 62 63 65 67 69 72 74 75 77 78 78 79 79 78 77 76 76 75 74 73 71 69 65 61 59 58 57 54 51 50 48 47 47 47 47 48 47 45 45 45 46 47
49 51 51 51 51 52 53 54 55 56 57 58 59 59 59 58 58 58 59 59 60 62 63 63 64 66 70 74 76 77 77 78 79 80 81 81 81 80 79 78 78 77 75 72 68 64 62 61 59 56 53 50 49 49 49 48 49 49 47 45 45 46 47
43 44 46 47 47 48 50 51 53 54 55 57 59 61 62 62 62 62 62 61 62 62 63 64 63 62 65 70 74 76 78 78 78 79 79 80 81 82 82 81 80 80 80 78 75 70 67 65 63 61 58 54 51 50 51 51 51 50 49 48 46 46 47
Wind_Direction
233 231 234 233 229 229 222 216 214 211 209 210 212 209 208 209 210 210 209 209 210 210 210 211 211 211 208 203 203 206 209 207 205 205 204 203 200 194 191 189 186 187 186 187 190 190 191 191 192 196 199 204 207 212 217 205 191 191 195 203 207 207 206
238 236 237 236 236 231 219 213 217 217 210 210 215 213 210 209 209 209 209 209 210 211 211 211 211 213 213 208 207 209 211 209 205 204 204 206 205 200 196 194 194 194 193 194 196 197 199 198 197 199 201 207 213 219 229 230 219 208 204 207 212 212 211
239 240 240 240 243 239 227 218 217 218 213 209 213 215 214 212 210 209 209 208 210 212 212 211 211 214 216 214 212 213 214 211 206 203 204 205 206 206 203 200 200 201 200 200 201 203 206 204 204 206 207 208 213 219 227 233 232 226 217 211 212 215 213
239 242 242 243 244 242 236 227 220 218 214 210 212 215 215 214 213 212 210 209 211 213 213 212 211 213 216 216 215 217 217 215 210 206 204 204 204 208 209 207 205 204 205 206 204 205 209 209 209 211 213 215 215 219 225 229 233 233 231 223 216 215 215
238 241 243 244 245 246 242 231 224 220 215 212 216 217 217 217 214 212 212 213 214 215 215 214 214 214 217 219 218 219 220 219 216 212 209 206 204 207 210 210 210 208 208 210 208 208 211 213 214 213 215 217 217 218 221 224 229 231 234 232 227 221 218
238 241 242 244 246 249 246 235 228 224 218 217 219 219 218 217 215 213 214 216 218 220 221 219 217 216 218 221 222 223 223 222 221 218 215 212 208 208 210 211 214 214 213 213 211 211 213 215 217 216 215 215 217 219 219 220 224 226 231 234 234 231 227
238 241 242 246 247 249 249 236 226 222 220 217 216 219 219 216 216 218 219 220 220 221 224 224 222 219 218 221 224 226 227 226 224 222 220 218 215 213 212 212 215 217 218 218 215 213 215 217 217 218 217 216 215 218 221 223 223 224 227 230 232 234 232
236 240 241 245 247 249 253 238 221 217 222 218 214 219 222 218 218 221 222 224 224 223 223 224 225 224 222 221 223 226 229 229 229 227 225 223 221 218 216 214 216 218 220 222 220 216 217 219 219 218 218 218 217 218 222 226 228 227 227 228 230 232 233
232 237 240 244 245 247 252 245 224 217 223 224 217 218 222 222 224 227 225 224 225 225 224 222 224 227 226 224 224 225 229 231 231 231 229 228 226 224 221 218 217 219 221 223 222 220 220 221 221 219 219 219 219 220 223 227 231 232 232 232 233 233 234
228 233 237 241 244 244 247 249 239 228 228 231 225 219 222 224 225 227 228 228 226 224 222 221 223 227 226 226 226 226 228 231 233 234 234 233 232 230 227 224 220 219 222 224 222 221 221 222 222 221 221 222 222 224 226 230 234 237 238 238 238 237 237
226 230 233 237 241 243 244 247 247 244 243 243 236 227 227 228 228 228 229 229 228 225 222 220 222 227 227 226 227 227 227 229 231 234 236 236 236 236 234 231 227 223 223 224 224 222 221 221 222 223 223 225 227 229 231 234 238 241 244 245 244 243 242
224 227 230 233 237 241 243 245 246 248 251 254 251 245 237 231 230 234 231 224 224 225 223 219 218 221 224 226 228 228 228 228 229 231 234 235 236 238 238 237 235 231 228 226 225 225 223 221 221 224 226 227 230 232 235 239 241 244 247 249 250 249 246
222 224 227 230 232 236 240 243 246 248 250 254 257 255 247 235 232 236 232 224 222 224 222 219 220 222 224 226 228 229 229 230 231 231 232 233 234 236 238 239 239 238 236 232 229 228 227 224 223 225 228 230 232 234 236 240 244 248 249 251 252 252 250
220 222 223 226 228 231 236 240 243 246 248 252 255 254 249 242 238 239 237 230 227 227 224 222 226 231 232 231 230 230 230 230 231 233 234 235 235 235 237 238 239 241 241 239 236 234 232 229 227 227 230 232 234 236 239 241 245 249 252 253 253 253 252
218 220 221 223 225 227 231 235 239 243 247 250 253 251 247 245 244 244 243 237 231 231 231 226 225 231 234 234 232 231 231 231 232 234 237 238 238 238 238 238 239 241 243 242 241 240 238 235 232 232 233 235 237 238 240 242 246 250 252 254 254 255 255
219 219 220 221 223 224 225 228 232 238 244 247 248 247 245 246 246 246 245 238 232 233 233 227 224 228 232 233 232 230 230 231 233 234 237 240 242 242 241 240 240 241 242 243 242 242 243 241 239 238 237 239 240 241 243 245 247 250 252 254 255 256 257
220 220 220 221 221 222 222 223 225 230 237 243 244 243 243 245 248 247 244 239 233 232 233 229 226 228 231 232 232 231 230 230 232 235 237 239 241 244 245 244 244 244 244 244 244 244 245 244 244 243 242 243 243 245 246 248 250 252 254 255 256 257 258
223 222 222 221 221 222 222 222 223 225 230 236 240 241 240 242 246 246 245 242 234 231 231 230 228 228 231 233 233 233 232 229 231 234 237 239 240 242 244 244 244 244 245 245 246 245 245 246 246 246 246 245 246 247 248 249 251 253 255 257 257 257 258
227 225 224 223 223 222 222 222 222 223 225 229 234 238 239 240 244 246 247 245 240 234 232 231 229 228 230 234 237 237 234 230 231 233 236 240 242 242 243 244 243 243 244 244 244 244 244 245 246 247 248 248 247 248 248 248 249 251 254 256 257 257 257
230 229 227 225 225 224 223 223 223 223 224 225 227 232 236 238 242 245 248 249 246 242 238 235 233 231 230 232 237 240 238 232 229 231 234 237 240 242 243 243 244 243 243 242 242 242 242 243 244 244 246 247 247 247 246 246 245 247 250 253 255 256 256
233 232 230 229 227 226 225 225 224 224 225 225 225 228 231 235 239 242 246 249 249 248 244 239 237 236 234 232 233 238 242 239 234 232 234 234 236 239 241 241 241 242 241 241 241 240 240 239 240 241 242 243 244 244 245 245 244 243 245 249 251 252 252
234 234 233 232 231 229 228 227 226 226 226 226 226 227 229 232 235 238 242 245 248 249 249 245 241 239 237 235 234 235 240 244 243 239 237 236 236 237 237 236 237 237 238 237 237 238 239 239 239 238 239 240 242 242 242 243 244 243 243 246 249 250 250
236 236 235 235 234 233 232 230 229 228 228 228 228 228 229 230 233 235 237 240 243 246 249 250 249 245 238 235 235 236 238 242 245 244 242 240 240 240 241 241 242 243 243 241 238 236 236 238 238 237 236 237 238 239 240 241 243 243 243 245 248 250 250
239 238 237 237 236 235 235 234 232 231 230 231 230 230 230 231 232 233 234 236 239 241 245 249 252 251 243 237 236 237 238 240 241 241 242 242 241 242 244 246 250 252 253 254 254 250 246 245 246 246 244 241 238 237 238 239 240 242 242 244 247 250 251
241 241 240 239 238 237 237 236 235 234 233 232 233 233 232 233 233 233 233 234 236 237 239 244 250 251 248 243 241 240 241 241 240 239 241 243 245 245 245 245 246 247 249 253 256 257 256 255 255 256 256 255 250 245 242 240 239 239 240 242 245 248 250
241 242 242 242 240 240 239 238 237 237 236 235 234 235 234 234 234 234 233 233 234 235 236 239 245 248 247 244 243 244 244 243 242 241 241 244 247 249 248 246 244 243 244 246 249 251 251 252 253 256 259 260 258 255 253 250 247 243 241 240 241 244 246
242 242 243 244 243 242 242 241 240 239 238 237 236 236 236 236 235 235 234 234 234 234 235 235 240 245 245 242 241 244 245 244 243 243 243 244 246 248 248 247 247 246 246 247 249 250 250 250 251 252 253 254 254 254 256 257 256 254 250 245 242 242 243
244 244 244 245 245 245 244 244 243 242 241 240 239 238 237 237 237 236 236 235 234 234 234 234 237 241 243 240 239 242 245 245 244 244 244 245 246 247 248 248 250 251 252 252 251 250 249 250 250 249 249 251 253 254 253 253 255 256 255 254 251 248 246
245 245 245 245 246 247 247 247 246 244 243 242 241 240 239 239 239 238 238 237 236 235 235 234 235 238 241 239 237 238 242 245 245 245 245 245 246 247 249 250 251 252 252 253 253 251 249 249 250 251 251 252 253 254 254 254 254 253 251 253 257 256 253
245 245 245 245 245 246 248 249 249 248 246 245 243 242 241 240 240 239 239 239 238 237 236 235 235 237 239 237 235 235 239 242 244 246 246 247 247 247 248 250 252 252 251 251 252 252 251 250 251 252 253 253 254 255 256 255 253 249 246 246 252 256 256
248 247 246 245 245 245 247 249 250 250 250 248 246 244 243 242 241 240 240 240 239 238 237 236 236 236 237 237 234 233 235 238 241 244 246 248 249 249 248 248 250 251 252 251 250 251 251 251 251 252 252 253 254 254 256 255 252 249 245 240 239 245 249
251 250 249 248 246 245 245 247 249 250 251 251 250 247 246 244 243 242 242 241 241 240 239 238 237 237 237 236 234 232 233 235 237 241 244 246 249 250 250 250 250 250 253 253 253 253 254 253 253 254 253 253 252 252 253 254 252 251 249 243 236 236 240
254 254 253 252 250 248 246 245 246 248 250 251 252 251 249 247 246 245 244 243 242 241 240 239 238 238 237 237 235 234 233 234 235 238 240 243 246 248 250 251 251 251 252 255 255 255 255 254 254 255 254 252 251 252 253 253 252 252 251 248 243 238 236
255 256 256 256 255 254 251 248 246 245 247 249 251 252 251 250 249 247 246 245 244 243 242 241 240 239 239 238 237 236 236 235 236 237 238 240 243 246 247 249 250 251 251 253 255 255 254 253 254 256 256 254 252 253 253 253 253 253 251 249 246 242 239
254 256 257 258 258 258 257 255 252 249 247 247 249 250 251 252 251 250 248 247 246 245 243 242 241 241 241 240 239 238 238 238 238 239 239 240 242 244 246 246 248 249 251 252 253 253 253 253 253 256 257 257 257 255 253 252 252 252 251 249 248 246 243
255 256 257 258 259 259 260 259 258 256 253 251 249 249 250 251 252 251 251 249 248 246 245 244 242 242 242 242 241 241 240 240 240 240 241 242 243 244 246 247 247 248 249 250 251 252 252 252 252 253 255 257 258 258 256 254 253 252 251 251 251 249 247
255 256 257 258 259 259 260 260 260 260 259 257 254 252 251 251 251 252 252 251 250 248 247 245 243 243 243 243 243 243 243 243 242 242 242 243 244 245 246 248 248 248 248 248 249 250 252 252 252 251 252 253 255 257 257 256 256 255 253 253 253 252 251
254 255 256 257 258 259 259 260 260 260 260 260 259 257 255 254 253 252 252 252 252 251 249 247 245 244 244 244 244 245 245 245 245 244 244 244 244 245 246 247 248 249 250 250 249 249 250 252 252 252 251 250 250 253 254 255 256 257 256 255 254 254 253
Height
5899 5902 5904 5907 5907 5907 5910 5914 5913 5911 5914 5916 5917 5918 5919 5920 5922 5923 5925 5926 5928 5930 5931 5933 5934 5935 5936 5938 5939 5940 5941 5942 5943 5944 5946 5947 5948 5949 5950 5951 5953 5954 5955 5955 5956 5957 5958 5958 5959 5960 5961 5962 5963 5964 5965 5966 5966 5967 5967 5968 5969 5969 5970
5897 5900 5903 5905 5906 5905 5907 5912 5912 5911 5912 5914 5916 5918 5918 5919 5921 5922 5923 5925 5926 5928 5930 5931 5933 5934 5936 5937 5938 5939 5940 5942 5943 5944 5945 5946 5948 5949 5950 5951 5952 5954 5954 5955 5956 5957 5958 5958 5959 5959 5960 5961 5962 5964 5965 5966 5966 5967 5968 5968 5969 5969 5970
5896 5898 5900 5903 5904 5903 5904 5907 5908 5909 5911 5912 5914 5917 5918 5919 5920 5921 5922 5924 5925 5927 5928 5930 5931 5933 5935 5936 5937 5938 5939 5941 5942 5943 5945 5946 5947 5948 5949 5951 5952 5953 5954 5955 5956 5957 5958 5958 5959 5959 5960 5961 5962 5963 5964 5965 5966 5967 5968 5968 5969 5969 5970
5895 5896 5899 5901 5901 5901 5902 5903 5904 5907 5910 5911 5912 5915 5916 5917 5918 5919 5921 5923 5925 5926 5927 5928 5930 5931 5933 5935 5936 5937 5939 5940 5941 5942 5943 5945 5946 5948 5949 5950 5951 5952 5954 5954 5955 5957 5957 5958 5959 5959 5960 5960 5961 5962 5963 5964 5965 5966 5967 5968 5969 5969 5970
5894 5895 5897 5898 5899 5899 5900 5901 5903 5906 5909 5909 5911 5913 5915 5917 5918 5918 5920 5923 5924 5925 5926 5927 5929 5930 5932 5933 5935 5936 5937 5939 5940 5941 5942 5944 5945 5947 5948 5949 5950 5952 5953 5954 5955 5956 5957 5958 5958 5959 5960 5960 5961 5962 5962 5963 5964 5965 5966 5967 5968 5969 5970
5892 5893 5895 5896 5897 5898 5898 5900 5904 5908 5909 5909 5910 5913 5916 5917 5918 5918 5919 5921 5923 5924 5926 5927 5929 5930 5931 5932 5934 5935 5936 5938 5939 5940 5941 5943 5944 5945 5947 5948 5950 5951 5952 5953 5954 5955 5956 5957 5958 5959 5959 5960 5961 5961 5962 5963 5963 5964 5965 5966 5967 5968 5969
5890 5892 5894 5894 5895 5897 5897 5899 5902 5906 5906 5906 5909 5913 5915 5916 5916 5917 5918 5919 5921 5923 5925 5927 5928 5929 5930 5931 5932 5934 5935 5936 5938 5939 5940 5942 5943 5944 5946 5947 5948 5950 5951 5952 5953 5954 5955 5956 5957 5958 5959 5959 5960 5961 5961 5962 5963 5963 5964 5965 5966 5967 5968
5888 5890 5891 5893 5894 5895 5896 5898 5900 5903 5903 5904 5908 5913 5914 5914 5915 5916 5916 5917 5919 5921 5924 5925 5927 5928 5929 5930 5931 5932 5933 5935 5937 5938 5940 5941 5942 5943 5944 5946 5947 5948 5950 5951 5952 5953 5955 5955 5956 5957 5958 5959 5959 5960 5961 5961 5962 5962 5963 5964 5965 5966 5967
5887 5888 5889 5891 5892 5894 5895 5896 5899 5901 5901 5903 5907 5911 5911 5912 5913 5913 5914 5915 5917 5920 5922 5923 5924 5926 5928 5929 5930 5931 5932 5933 5935 5937 5939 5940 5941 5942 5943 5944 5945 5947 5948 5949 5950 5952 5953 5954 5955 5956 5957 5958 5959 5959 5960 5961 5961 5962 5962 5963 5964 5965 5966
5885 5886 5887 5889 5890 5892 5893 5895 5897 5899 5899 5901 5905 5907 5908 5909 5910 5911 5912 5914 5916 5917 5918 5920 5922 5924 5925 5927 5928 5929 5930 5932 5934 5936 5938 5939 5940 5941 5942 5943 5944 5945 5946 5948 5949 5950 5952 5953 5954 5955 5956 5957 5958 5959 5959 5960 5961 5961 5962 5962 5963 5964 5965
5883 5884 5885 5887 5888 5889 5891 5893 5894 5896 5897 5899 5900 5903 5905 5907 5909 5909 5910 5914 5916 5916 5915 5916 5918 5920 5922 5924 5926 5927 5929 5930 5932 5934 5936 5937 5939 5940 5941 5942 5943 5944 5945 5946 5947 5949 5950 5952 5953 5954 5955 5956 5957 5958 5959 5960 5960 5961 5962 5962 5963 5963 5964
5880 5882 5883 5885 5886 5887 5889 5890 5892 5893 5895 5896 5898 5900 5902 5905 5907 5908 5909 5912 5914 5914 5914 5913 5914 5916 5919 5921 5923 5925 5927 5928 5930 5932 5933 5935 5937 5938 5939 5941 5942 5943 5944 5945 5946 5947 5949 5950 5952 5953 5954 5955 5956 5957 5958 5959 5960 5960 5961 5961 5962 5963 5963
5877 5879 5881 5882 5884 5885 5887 5888 5890 5891 5893 5895 5896 5898 5899 5902 5904 5905 5907 5910 5911 5910 5912 5914 5915 5916 5916 5918 5919 5922 5925 5926 5928 5929 5930 5932 5934 5936 5938 5939 5940 5941 5942 5943 5945 5946 5947 5949 5950 5951 5953 5954 5955 5956 5957 5958 5959 5959 5960 5961 5961 5962 5962
5873 5875 5877 5879 5881 5882 5884 5886 5887 5889 5890 5892 5894 5895 5897 5898 5900 5901 5903 5906 5908 5908 5908 5911 5914 5915 5916 5916 5918 5920 5922 5924 5925 5926 5928 5930 5932 5934 5936 5937 5938 5940 5941 5943 5944 5945 5946 5948 5949 5950 5951 5953 5954 5955 5956 5957 5957 5958 5959 5959 5960 5960 5961
5869 5871 5874 5876 5878 5879 5881 5883 5884 5886 5887 5889 5891 5893 5894 5895 5896 5898 5899 5901 5905 5906 5906 5908 5909 5912 5914 5915 5916 5917 5918 5920 5922 5924 5926 5928 5930 5932 5934 5935 5937 5938 5939 5941 5943 5944 5945 5946 5948 5949 5950 5951 5953 5954 5955 5955 5956 5957 5957 5958 5958 5959 5960
5864 5867 5869 5872 5874 5876 5879 5880 5881 5883 5884 5886 5888 5890 5891 5892 5893 5895 5896 5898 5901 5903 5904 5905 5905 5908 5911 5913 5914 5914 5915 5917 5919 5922 5924 5926 5928 5930 5932 5934 5935 5936 5938 5939 5941 5942 5943 5945 5946 5948 5949 5950 5951 5952 5953 5954 5955 5955 5955 5956 5957 5957 5958
5860 5862 5865 5868 5870 5872 5875 5877 5879 5880 5881 5883 5884 5886 5888 5889 5889 5891 5892 5894 5897 5899 5900 5902 5902 5903 5906 5909 5912 5912 5912 5913 5916 5919 5921 5923 5925 5927 5929 5931 5933 5935 5936 5938 5939 5940 5942 5943 5945 5946 5947 5948 5950 5951 5952 5953 5953 5954 5954 5954 5955 5956 5957
5855 5858 5860 5863 5865 5868 5870 5873 5875 5877 5879 5880 5881 5883 5885 5886 5886 5888 5888 5890 5894 5895 5897 5898 5899 5899 5902 5905 5909 5911 5910 5910 5912 5915 5917 5920 5922 5924 5926 5928 5930 5932 5934 5936 5937 5938 5939 5941 5942 5944 5945 5946 5948 5949 5950 5951 5952 5952 5952 5952 5953 5954 5954
5851 5853 5856 5858 5861 5863 5865 5868 5870 5873 5875 5876 5878 5880 5881 5882 5883 5884 5885 5887 5889 5892 5894 5895 5895 5897 5900 5904 5908 5910 5908 5907 5908 5910 5913 5916 5918 5920 5922 5924 5926 5928 5930 5932 5933 5935 5936 5938 5940 5941 5942 5944 5946 5947 5948 5949 5950 5950 5950 5950 5950 5951 5952
5846 5848 5851 5853 5856 5858 5861 5863 5865 5868 5870 5872 5874 5876 5878 5879 5880 5881 5882 5883 5885 5888 5890 5892 5893 5895 5898 5901 5905 5907 5906 5906 5906 5906 5908 5911 5914 5916 5918 5920 5922 5924 5926 5927 5928 5930 5932 5935 5936 5938 5939 5941 5942 5944 5945 5946 5947 5948 5948 5948 5948 5948 5949
5841 5844 5846 5848 5851 5853 5856 5858 5861 5863 5865 5868 5870 5872 5874 5876 5877 5879 5879 5880 5882 5883 5885 5888 5891 5893 5894 5897 5900 5902 5903 5904 5904 5904 5905 5906 5908 5911 5913 5915 5917 5918 5920 5922 5923 5925 5927 5929 5931 5933 5935 5937 5938 5940 5941 5942 5943 5944 5945 5945 5945 5945 5946
5836 5839 5841 5844 5846 5848 5851 5853 5856 5858 5861 5863 5865 5867 5869 5872 5874 5875 5877 5878 5879 5880 5881 5883 5886 5889 5891 5893 5895 5897 5899 5902 5903 5903 5902 5902 5903 5904 5906 5907 5909 5911 5913 5914 5916 5919 5922 5924 5926 5928 5930 5932 5934 5935 5937 5938 5939 5940 5942 5941 5941 5941 5942
5831 5834 5836 5838 5841 5843 5846 5848 5850 5853 5855 5858 5860 5863 5865 5867 5869 5871 5873 5875 5876 5877 5878 5879 5881 5884 5887 5888 5890 5892 5894 5897 5899 5900 5899 5898 5899 5899 5901 5904 5906 5908 5910 5912 5913 5916 5919 5920 5920 5921 5923 5925 5927 5930 5932 5934 5934 5936 5937 5937 5937 5937 5939
5825 5828 5830 5833 5835 5838 5840 5842 5844 5847 5849 5852 5855 5857 5860 5862 5864 5867 5869 5871 5873 5874 5875 5875 5876 5879 5882 5883 5885 5887 5889 5891 5894 5895 5894 5893 5893 5894 5898 5902 5906 5908 5910 5912 5914 5917 5919 5920 5919 5920 5921 5922 5923 5925 5927 5928 5929 5930 5932 5933 5933 5933 5934
5819 5822 5824 5827 5829 5832 5834 5836 5839 5841 5844 5846 5849 5851 5854 5857 5859 5861 5864 5866 5868 5870 5872 5872 5873 5874 5876 5878 5880 5882 5884 5886 5888 5889 5889 5887 5886 5889 5894 5899 5901 5903 5905 5908 5911 5916 5918 5919 5920 5921 5922 5922 5922 5923 5924 5924 5924 5925 5926 5928 5928 5929 5930
5814 5816 5818 5820 5824 5826 5828 5830 5833 5836 5838 5841 5843 5845 5848 5851 5853 5856 5858 5861 5863 5865 5867 5869 5869 5870 5872 5874 5875 5877 5879 5880 5883 5884 5884 5883 5882 5886 5891 5894 5894 5896 5899 5902 5906 5910 5913 5914 5915 5917 5919 5920 5921 5922 5923 5923 5922 5922 5923 5923 5923 5924 5924
5808 5810 5812 5814 5817 5819 5821 5825 5827 5829 5832 5835 5837 5839 5842 5845 5847 5850 5852 5855 5857 5859 5862 5864 5865 5866 5868 5870 5871 5873 5874 5875 5877 5878 5879 5879 5880 5883 5887 5890 5890 5892 5896 5899 5903 5906 5908 5910 5911 5913 5914 5915 5916 5918 5922 5923 5922 5922 5923 5921 5921 5920 5920
5803 5805 5807 5808 5810 5812 5815 5818 5820 5823 5826 5829 5831 5834 5836 5839 5841 5843 5846 5848 5851 5854 5856 5859 5860 5862 5863 5865 5866 5868 5870 5870 5871 5873 5873 5874 5876 5879 5882 5885 5887 5891 5895 5897 5899 5902 5904 5906 5908 5908 5909 5910 5911 5914 5917 5918 5918 5920 5921 5921 5920 5919 5918
5797 5799 5801 5803 5804 5806 5809 5811 5813 5816 5819 5821 5824 5827 5830 5833 5835 5837 5840 5842 5845 5847 5850 5852 5855 5856 5858 5860 5861 5863 5865 5865 5866 5867 5867 5868 5870 5874 5878 5880 5882 5887 5891 5893 5895 5898 5900 5902 5904 5905 5907 5908 5909 5910 5912 5913 5914 5916 5917 5917 5918 5918 5918
5792 5793 5795 5797 5799 5801 5803 5804 5806 5809 5811 5814 5817 5820 5823 5825 5828 5831 5833 5835 5838 5841 5843 5846 5848 5850 5852 5854 5856 5858 5859 5860 5861 5862 5862 5863 5864 5868 5873 5875 5877 5880 5884 5888 5891 5893 5896 5898 5900 5901 5903 5904 5905 5907 5908 5909 5910 5910 5911 5912 5913 5913 5915
5785 5787 5789 5791 5794 5796 5798 5799 5800 5802 5804 5806 5809 5812 5815 5818 5821 5824 5826 5828 5831 5834 5836 5839 5842 5844 5846 5848 5850 5852 5853 5855 5856 5857 5857 5858 5859 5862 5866 5869 5872 5875 5878 5881 5885 5889 5891 5893 5895 5896 5898 5900 5901 5903 5904 5905 5905 5905 5905 5907 5907 5907 5908
5778 5780 5782 5785 5787 5790 5793 5794 5795 5796 5797 5799 5801 5804 5807 5810 5813 5816 5818 5821 5823 5826 5829 5832 5834 5837 5839 5842 5844 5845 5847 5849 5851 5852 5852 5852 5853 5856 5859 5862 5866 5869 5871 5873 5878 5883 5885 5887 5888 5891 5893 5895 5897 5898 5899 5900 5901 5901 5900 5901 5902 5902 5902
5771 5773 5775 5777 5780 5783 5786 5788 5790 5791 5792 5793 5794 5796 5800 5803 5805 5808 5811 5813 5816 5818 5821 5824 5827 5829 5832 5835 5837 5839 5840 5842 5845 5846 5847 5847 5848 5850 5853 5856 5859 5863 5865 5866 5870 5875 5878 5880 5882 5884 5887 5889 5891 5893 5894 5895 5896 5896 5896 5897 5898 5898 5898
5765 5766 5768 5770 5772 5774 5778 5781 5784 5785 5787 5788 5789 5790 5792 5795 5798 5800 5803 5805 5808 5810 5813 5816 5819 5822 5824 5827 5829 5831 5833 5836 5838 5840 5841 5842 5843 5844 5847 5850 5853 5856 5859 5861 5864 5868 5872 5874 5877 5879 5881 5883 5885 5887 5888 5890 5891 5891 5891 5892 5893 5894 5894
5760 5761 5762 5763 5765 5766 5769 5772 5775 5778 5781 5782 5783 5784 5786 5788 5790 5792 5795 5797 5799 5802 5804 5808 5811 5814 5816 5818 5820 5822 5825 5829 5832 5834 5835 5837 5837 5838 5840 5843 5846 5849 5852 5854 5858 5861 5865 5868 5871 5873 5875 5877 5879 5880 5881 5883 5885 5886 5886 5887 5889 5891 5891
5754 5755 5755 5757 5758 5760 5761 5763 5766 5769 5772 5774 5777 5778 5779 5781 5782 5784 5786 5788 5790 5793 5796 5799 5803 5807 5808 5809 5811 5814 5817 5821 5824 5826 5828 5830 5831 5832 5833 5836 5839 5842 5845 5848 5851 5855 5858 5861 5864 5866 5868 5871 5874 5874 5875 5877 5879 5880 5881 5883 5884 5886 5886
5747 5748 5749 5750 5752 5753 5755 5756 5758 5760 5763 5765 5768 5770 5772 5774 5776 5776 5778 5780 5782 5785 5788 5791 5795 5799 5800 5801 5803 5806 5809 5812 5815 5818 5821 5822 5824 5826 5827 5829 5830 5833 5836 5840 5844 5849 5852 5854 5857 5859 5861 5864 5867 5868 5869 5871 5873 5874 5876 5878 5880 5881 5882
5741 5743 5743 5744 5745 5747 5748 5749 5750 5752 5754 5756 5758 5760 5763 5766 5768 5769 5770 5772 5774 5776 5779 5783 5788 5791 5792 5793 5795 5798 5800 5803 5805 5808 5812 5814 5816 5818 5820 5822 5824 5825 5827 5831 5836 5841 5844 5847 5849 5852 5854 5856 5859 5861 5863 5865 5867 5868 5870 5872 5874 5875 5876